Find Starlink 30094

NORAD ID: 56305 Int'l Des: 2023-056 Owner: SPXS Country: US Constellation: starlink operational
LEOCIRCULAR

实时位置

正在加载3D地球...

关于 Starlink 30094

正在加载描述...

即将过境

Passes for default location (London). Set your location on the main map for personalized predictions.

高度历史

Loading altitude history...

两行轨道根数

1 56305U 23056V 26125.78638220 .00005804 00000-0 22015-3 0 9997
2 56305 43.0049 246.2513 0002498 276.8104 83.2464 15.27601076168833
Epoch: May 5, 2026 • Age: 13 hours

当前状态

高度 484.8 km
速度 7.62 km/s
星下点 -11.56°S, 87.21°E
发射日期 Apr 19, 2023
运行时间 3 years
类型 internet

技术详情

分类 Payload
质量 730.00 kg
干质量 700.00 kg
总质量 730.00 kg
长度 0.30 m
直径 4.10 m
跨度 29.00 m
形状 Box + pan
制造商 SPXS
平台类型 Starlink V2M
阶段状态 In Orbit
所有者/国家 SPXS/US

Most Searched